Flag for U.S.A. Weather past 2 weeks in Cupertino, California, U.S.A.

Now
55 °F

Overcast.


Feels Like: 53 °F
Forecast: 52 / 70 °F
Wind: 8 mph from Northeast

Location: Moffett Field

Current Time: Apr 28, 2015 at 4:32:24 AM

Latest Report: Apr 28, 2015 at 3:56 AM


Visibility: 10 mi

Pressure: 30.05 "Hg

Humidity: 83%

Dew point: 50 °F

Location of CupertinoLocation

Historic Weather in Cupertino — Graph

°F

Cupertino temperature yesterday

Maximum temperature yesterday: 85 °F (at 3:56 PM)
Minimum temperature yesterday: 53 °F (at 4:56 AM)
Average temperature yesterday: 65 °F

Past Weeks' High & Low Weather Summary

 TemperatureHumidityPressure
High85 °F (Apr 27, 3:56 PM)93% (Apr 25, 2:56 AM)30.36 "Hg (Apr 25, 2:56 AM)
Low49 °F (Apr 14, 5:56 AM)17% (Apr 16, 3:56 PM)29.85 "Hg (Apr 20, 6:56 PM)
Average60 °F61%30.02 "Hg
* Reported Apr 13 2:56 AM — Apr 28 2:56 AM, Cupertino, Weather by CustomWeather, © 2015

Note: Actual official high and low records may vary slightly from our data, if they occured in-between our weather recording intervals... More about our weather records

Advertising

Cupertino weather history for previous 24 hours

 ConditionsComfort  
Time TempWeatherWind HumidityBarometerVisibility
2:56 AM
Tue, Apr 28
54 °FOvercast.9 mph86%30.05 "Hg10 mi
1:56 AM55 °FPassing clouds.7 mph83%30.06 "Hg10 mi
12:56 AM54 °FClear.5 mph90%30.06 "Hg10 mi
11:56 PM
Mon, Apr 27
55 °FPassing clouds.10 mph87%30.05 "Hg10 mi
10:56 PM56 °FPassing clouds.12 mph84%30.04 "Hg10 mi
9:56 PM57 °FClear.9 mph81%30.03 "Hg10 mi
8:56 PM59 °FClear.7 mph75%30.00 "Hg10 mi
7:56 PM61 °FSunny.12 mph70%29.97 "Hg10 mi
6:56 PM66 °FSunny.15 mph61%29.95 "Hg10 mi
5:56 PM70 °FSunny.16 mph57%29.94 "Hg10 mi
4:56 PM76 °FSunny.20 mph52%29.94 "Hg10 mi
3:56 PM85 °FSunny.13 mph28%29.94 "Hg10 mi
2:56 PM84 °FSunny.8 mph29%29.96 "Hg10 mi
1:56 PM82 °FSunny.9 mph31%29.98 "Hg10 mi
12:56 PM79 °FSunny.7 mph34%30.00 "Hg10 mi
11:56 AM77 °FSunny.6 mph36%30.02 "Hg10 mi
10:56 AM76 °FSunny.6 mph39%30.03 "Hg10 mi
9:56 AM71 °FSunny.3 mph47%30.03 "Hg10 mi
8:56 AM64 °FSunny.No wind65%30.04 "Hg10 mi
7:56 AM58 °FSunny.No wind78%30.05 "Hg10 mi
6:56 AM55 °FClear.No wind80%30.05 "Hg10 mi
5:56 AM53 °FClear.No wind80%30.04 "Hg10 mi
4:56 AM53 °FClear.No wind80%30.04 "Hg10 mi
Weather by CustomWeather, © 2015

See weather overviewHow to use our weather pages